Weather reports worldwide

Advertisment
Paganella, Italy (16022): temperature & dewpoint: 14.06.2018 11:00:00 - 20.06.2018 11:00:00 (CEST)Paganella, Italy (16022): wind speed: 14.06.2018 11:00:00 - 20.06.2018 11:00:00 (CEST)Paganella, Italy (16022): wind direction: 14.06.2018 11:00:00 - 20.06.2018 11:00:00 (CEST)Paganella, Italy (16022): visibility: 14.06.2018 11:00:00 - 20.06.2018 11:00:00 (CEST)Paganella, Italy (16022): sunshine duration: 14.06.2018 11:00:00 - 20.06.2018 11:00:00 (CEST)
Date & Time tt [°C] td [°C] ff [km/h] ff [kn] dd vv [km] sd [min]
20.06.2018 11:00:00 11,8 9,2 15 8 SSW 0,8 0
20.06.2018 10:00:00 11,2 8,6 8 4 SE 0,8 12
20.06.2018 09:00:00 10,0 8,1 11 6 SSW 0,8 18
20.06.2018 08:00:00 9,1 9,1 9 5 SSW 0,4 0
20.06.2018 07:00:00 8,6 8,5 11 6 SSW 0,2 0
20.06.2018 06:00:00 8,3 8,3 11 6 SSW 15 0
20.06.2018 05:00:00 8,4 7,7 11 6 S 18 -
20.06.2018 04:00:00 8,8 8,2 0 0 N 15 -
20.06.2018 03:00:00 9,2 7,5 8 4 SSE 20 -
20.06.2018 02:00:00 9,4 7,5 8 4 S 20 -
20.06.2018 01:00:00 9,8 8,2 9 5 S 20 -
20.06.2018 00:00:00 10,0 8,1 13 7 S 15 -
19.06.2018 23:00:00 11,4 7,7 9 5 NNE 20 -
19.06.2018 22:00:00 12,2 5,6 0 0 N 70 0
19.06.2018 21:00:00 14,0 6,8 0 0 N 30 36
19.06.2018 20:00:00 14,8 5,1 5 3 N 50 60
19.06.2018 19:00:00 13,8 4,1 9 5 NNE 70 60
19.06.2018 18:00:00 13,6 3,4 9 5 ENE 50 60
19.06.2018 17:00:00 13,7 3,8 8 4 NE 70 60
19.06.2018 16:00:00 13,8 3,8 9 5 NE 70 60
19.06.2018 15:00:00 13,1 3,2 9 5 NNE 70 60
19.06.2018 14:00:00 12,6 4,6 8 4 NNE 70 60
19.06.2018 13:00:00 12,2 4,9 9 5 NNE 70 60
19.06.2018 12:00:00 11,0 3,5 9 5 N 70 60
19.06.2018 11:00:00 10,0 2,6 11 6 NNW 70 60
19.06.2018 10:00:00 9,2 2,5 18 10 N 50 60
19.06.2018 09:00:00 8,8 1,9 22 12 N 50 60
19.06.2018 08:00:00 9,0 2,1 18 10 N 50 60
19.06.2018 07:00:00 7,8 2,3 18 10 N 50 24
19.06.2018 06:00:00 7,2 1,7 15 8 N 50 0
19.06.2018 05:00:00 7,0 1,9 16 9 N 50 -
19.06.2018 04:00:00 7,0 2,3 13 7 N 50 -
19.06.2018 03:00:00 7,6 2,5 15 8 N 50 -
19.06.2018 02:00:00 7,6 2,3 11 6 N 50 -
19.06.2018 01:00:00 8,2 2,7 11 6 N 50 -
19.06.2018 00:00:00 8,2 2,9 13 7 N 50 -
18.06.2018 23:00:00 9,0 5,2 15 8 N 50 -
18.06.2018 22:00:00 10,0 5,2 15 8 N 50 0
18.06.2018 21:00:00 10,2 4,4 13 7 N 50 0
18.06.2018 20:00:00 11,2 3,0 13 7 N 50 36
18.06.2018 19:00:00 11,6 2,4 11 6 N 50 36
18.06.2018 18:00:00 12,2 3,2 13 7 N 50 36
18.06.2018 17:00:00 13,0 4,2 11 6 NNE 50 60
18.06.2018 16:00:00 12,6 4,1 9 5 N 50 36
18.06.2018 15:00:00 12,6 5,5 9 5 N 50 24
18.06.2018 14:00:00 11,8 5,2 11 6 N 50 60
18.06.2018 13:00:00 11,2 5,5 11 6 N 50 60
18.06.2018 12:00:00 10,6 5,4 13 7 N 50 60
18.06.2018 11:00:00 9,8 4,4 13 7 N 50 60
18.06.2018 10:00:00 8,6 3,0 15 8 N 40 60
18.06.2018 09:00:00 8,0 4,0 15 8 N 50 60
18.06.2018 08:00:00 6,8 4,0 18 10 N 40 36
18.06.2018 07:00:00 6,4 4,6 15 8 N 30 0
18.06.2018 06:00:00 6,6 6,0 13 7 N 20 0
18.06.2018 05:00:00 7,0 7,0 11 6 N 0,7 -
18.06.2018 04:00:00 7,2 7,2 8 4 S 0,3 -
18.06.2018 03:00:00 9,0 7,1 4 2 S 0,3 -
18.06.2018 02:00:00 9,0 8,7 8 4 SSW 0,3 -
18.06.2018 01:00:00 9,4 7,8 11 6 SSW 10 -
18.06.2018 00:00:00 9,6 8,0 8 4 SSW 10 -
17.06.2018 23:00:00 10,6 6,4 8 4 SSW 40 -
17.06.2018 22:00:00 11,8 0,9 9 5 N 40 0
17.06.2018 21:00:00 12,2 2,4 0 0 N 40 24
17.06.2018 20:00:00 13,6 3,9 5 3 N 40 60
17.06.2018 19:00:00 13,4 3,2 9 5 N 40 60
17.06.2018 18:00:00 13,8 3,0 8 4 SSW 40 60
17.06.2018 17:00:00 13,6 2,2 13 7 SSW 40 60
17.06.2018 16:00:00 12,4 1,7 8 4 S 40 48
17.06.2018 15:00:00 12,0 1,9 9 5 S 40 60
17.06.2018 14:00:00 11,2 1,7 8 4 S 40 60
17.06.2018 13:00:00 10,8 1,4 13 7 N 40 60
17.06.2018 12:00:00 10,0 2,1 24 13 N 30 60
17.06.2018 11:00:00 9,8 2,7 18 10 N 30 60
17.06.2018 10:00:00 9,8 6,0 11 6 N 30 60
17.06.2018 09:00:00 9,4 4,8 9 5 N 20 60
17.06.2018 08:00:00 8,4 4,8 8 4 N 20 42
17.06.2018 07:00:00 7,6 4,6 11 6 N 15 0
17.06.2018 06:00:00 6,9 6,3 9 5 N 15 0
17.06.2018 05:00:00 7,0 3,8 8 4 N 15 -
17.06.2018 04:00:00 7,2 2,5 0 0 N 30 -
17.06.2018 03:00:00 7,4 2,3 0 0 N 30 -
17.06.2018 02:00:00 7,2 2,5 15 8 SSW 30 -
17.06.2018 01:00:00 7,4 4,5 18 10 NNE 20 -
17.06.2018 00:00:00 7,4 6,0 15 8 SSW 30 -
16.06.2018 23:00:00 7,6 6,9 15 8 SW - -
16.06.2018 22:00:00 7,8 6,9 15 8 SW - 0
16.06.2018 21:00:00 8,8 6,1 18 10 SW 40 12
16.06.2018 20:00:00 11,2 5,3 13 7 SSW 40 60
16.06.2018 19:00:00 12,6 6,2 13 7 SW 40 60
16.06.2018 18:00:00 12,4 6,2 13 7 SW 40 48
16.06.2018 17:00:00 12,0 5,0 11 6 SW 40 54
16.06.2018 16:00:00 12,4 3,4 8 4 SSW 40 60
16.06.2018 15:00:00 10,4 6,7 9 5 SSW 40 24
16.06.2018 14:00:00 9,8 5,0 5 3 NNE 40 36
16.06.2018 13:00:00 9,2 4,2 8 4 NE 40 30
16.06.2018 12:00:00 9,8 1,4 8 4 NNE 40 60
16.06.2018 11:00:00 8,2 4,6 0 0 N 20 48
16.06.2018 10:00:00 8,0 4,2 8 4 N 15 48
16.06.2018 09:00:00 7,4 3,8 8 4 N 15 60
16.06.2018 08:00:00 6,0 3,7 8 4 N 15 6
16.06.2018 07:00:00 5,2 5,2 0 0 N - 0
16.06.2018 06:00:00 5,2 5,2 11 6 N - 0
16.06.2018 05:00:00 5,8 5,8 13 7 N - -
16.06.2018 04:00:00 6,2 5,9 8 4 N 10 -
16.06.2018 03:00:00 6,4 5,2 9 5 N 40 -
16.06.2018 02:00:00 6,6 5,1 5 3 N 30 -
16.06.2018 01:00:00 7,0 6,2 0 0 N 10 -
16.06.2018 00:00:00 7,2 4,9 0 0 N 30 -
15.06.2018 23:00:00 7,2 4,9 11 6 SSW 10 -
15.06.2018 22:00:00 7,8 5,8 15 8 SSW 30 0
15.06.2018 21:00:00 10,0 5,0 11 6 SW 40 36
15.06.2018 20:00:00 13,0 2,0 8 4 SSW 40 60
15.06.2018 19:00:00 12,4 1,7 9 5 SSW 60 60
15.06.2018 18:00:00 12,0 1,0 11 6 SSW 60 60
15.06.2018 17:00:00 11,4 -2,4 8 4 NNW 60 60
15.06.2018 16:00:00 11,4 -4,3 5 3 N 60 60
15.06.2018 15:00:00 10,4 -5,6 15 8 N 60 60
15.06.2018 14:00:00 9,8 -6,1 13 7 N 60 60
15.06.2018 13:00:00 9,4 -6,5 15 8 N 60 60
15.06.2018 12:00:00 8,8 -7,0 18 10 N 60 60
15.06.2018 11:00:00 7,4 -7,8 29 16 N 60 60
15.06.2018 10:00:00 6,6 -6,7 24 13 N 60 60
15.06.2018 09:00:00 5,4 -5,6 26 14 N 50 60
15.06.2018 08:00:00 4,8 -3,7 22 12 N 40 60
15.06.2018 07:00:00 4,0 -3,3 29 16 N 40 48
15.06.2018 06:00:00 3,0 -3,1 34 18 NNW 40 0
15.06.2018 05:00:00 2,8 -1,0 41 22 N 40 -
15.06.2018 04:00:00 3,2 -0,6 29 16 N 40 -
15.06.2018 03:00:00 4,0 1,5 18 10 N 40 -
15.06.2018 02:00:00 4,8 3,0 15 8 N 40 -
15.06.2018 01:00:00 5,0 4,7 15 8 N 40 -
15.06.2018 00:00:00 5,8 4,3 11 6 N 50 -
14.06.2018 23:00:00 7,6 4,0 15 8 N 50 -
14.06.2018 22:00:00 8,2 3,5 0 0 N 50 0
14.06.2018 21:00:00 10,2 2,6 0 0 N 50 0
14.06.2018 20:00:00 11,4 1,4 11 6 N 50 60
14.06.2018 19:00:00 10,8 2,9 5 3 N 50 60
14.06.2018 18:00:00 11,0 3,5 9 5 N 50 60
14.06.2018 17:00:00 10,8 1,9 8 4 N 50 60
14.06.2018 16:00:00 10,2 2,1 0 0 N 50 60
14.06.2018 15:00:00 9,4 2,3 0 0 N 50 60
14.06.2018 14:00:00 8,8 -0,5 8 4 N 50 60
14.06.2018 13:00:00 8,4 1,8 4 2 N 50 60
14.06.2018 12:00:00 7,2 0,6 11 6 N 50 54
14.06.2018 11:00:00 5,6 -2,0 34 18 N 50 6

tt = temperature
td = dewpoint
ff = wind speed
dd = wind direction
vv = visibility
sd = sunshine duration

Next stations